This demonstration page uses our WeatherBlox Daily Observations layout. Learn more.

40.92945, -100.16068

Hourly Observations for November 3, 2020

Temp ( °F °C ) Dew Point ( °F °C ) Humidity (%) Winds ( mph kmh ) Pressure ( in mb ) Visibility ( mi km ) Precip ( " mm )
12:15 am 00:15 Clear 33 0.5 25 -3.9 73 73 NNW 7 11 30.2 1023 10 16.0934 0 0
12:35 am 00:35 Clear 33 0.7 25 -4 71 71 NW 3 6 30.2 1023 10 16.0934 0 0
12:55 am 00:55 Clear 34 1.2 26 -3.2 73 73 W 3 6 30.19 1022 10 16.0934 0 0
1:15 am 01:15 Clear 33 0.6 24 -4.5 69 69 WSW 3 6 30.19 1022 10 16.0934 0 0
1:35 am 01:35 Clear 33 0.8 26 -3.3 74 74 Calm 30.18 1022 10 16.0934 0 0
1:55 am 01:55 Clear 32 -0.2 24 -4.4 74 74 NW 3 6 30.19 1022 10 16.0934 0 0
2:15 am 02:15 Clear 31 -0.5 24 -4.6 74 74 WNW 5 7 30.18 1022 10 16.0934 0 0
2:35 am 02:35 Clear 31 -0.4 24 -4.3 75 75 NW 5 7 30.18 1022 10 16.0934 0 0
2:55 am 02:55 Clear 31 -0.4 25 -4.1 76 76 W 6 9 30.18 1022 10 16.0934 0 0
3:15 am 03:15 Clear 31 -0.5 25 -4 77 77 WNW 7 11 30.17 1022 10 16.0934 0 0
3:35 am 03:35 Clear 31 -0.3 25 -3.9 77 77 W 5 7 30.16 1021 10 16.0934 0 0
3:55 am 03:55 Clear 31 -0.5 25 -3.9 78 78 W 6 9 30.16 1021 10 16.0934 0 0
4:15 am 04:15 Clear 31 -0.5 25 -4 77 77 W 8 13 30.16 1021 10 16.0934 0 0
4:35 am 04:35 Clear 30 -1 25 -4.1 80 80 WNW 5 7 30.17 1022 10 16.0934 0 0
4:55 am 04:55 Clear 30 -1.1 24 -4.2 80 80 WNW 5 7 30.16 1021 10 16.0934 0 0
5:15 am 05:15 Clear 30 -0.9 24 -4.4 77 77 W 5 7 30.16 1021 10 16.0934 0 0
5:35 am 05:35 Clear 31 -0.8 24 -4.2 78 78 W 6 9 30.16 1021 10 16.0934 0 0
5:55 am 05:55 Clear 30 -1.1 24 -4.2 80 80 WSW 5 7 30.16 1021 10 16.0934 0 0
6:15 am 06:15 Clear 32 0 26 -3.6 77 77 WSW 6 9 30.15 1021 10 16.0934 0 0
6:35 am 06:35 Clear 31 -0.5 25 -3.9 78 78 W 7 11 30.14 1021 10 16.0934 0 0
6:55 am 06:55 Clear 31 -0.7 25 -4 79 79 W 7 11 30.13 1020 10 16.0934 0 0
7:15 am 07:15 Sunny 30 -1 25 -4 80 80 WNW 6 9 30.14 1021 10 16.0934 0 0
7:35 am 07:35 Sunny 31 -0.4 26 -3.6 79 79 W 7 11 30.14 1021 10 16.0934 0 0
7:55 am 07:55 Sunny 33 0.5 27 -2.9 78 78 W 6 9 30.12 1020 10 16.0934 0 0
8:15 am 08:15 Sunny 36 2.4 29 -1.4 76 76 W 3 6 30.11 1020 10 16.0934 0 0
8:35 am 08:35 Sunny 41 4.9 30 -1.1 65 65 WNW 7 11 30.09 1019 10 16.0934 0 0
8:55 am 08:55 Sunny 44 6.5 30 -1 59 59 WNW 8 13 30.08 1019 10 16.0934 0 0
9:15 am 09:15 Sunny 47 8.3 31 -0.8 53 53 W 6 9 30.07 1018 10 16.0934 0 0
9:35 am 09:35 Sunny 51 10.5 31 -0.5 47 47 WNW 7 11 30.04 1017 10 16.0934 0 0
9:55 am 09:55 Sunny 55 12.7 31 -0.4 41 41 W 8 13 30.02 1016 10 16.0934 0 0
10:15 am 10:15 Sunny 60 15.3 31 -0.3 35 35 W 6 9 29.99 1016 10 16.0934 0 0
10:35 am 10:35 Sunny 63 17.1 31 -0.6 30 30 W 7 11 29.97 1015 10 16.0934 0 0
10:55 am 10:55 Sunny 66 18.8 30 -1.1 26 26 WSW 5 7 29.95 1014 10 16.0934 0 0
11:15 am 11:15 Sunny 68 20.1 30 -1.2 24 24 WNW 6 9 29.93 1014 10 16.0934 0 0
11:35 am 11:35 Sunny 71 21.5 29 -1.5 21 21 W 6 9 29.91 1013 10 16.0934 0 0
11:55 am 11:55 Sunny 74 23.4 28 -2.5 18 18 W 5 7 29.88 1012 10 16.0934 0 0
12:15 pm 12:15 Sunny 76 24.5 30 -1.3 18 18 SSW 3 6 29.86 1011 10 16.0934 0 0
12:35 pm 12:35 Sunny 80 26.5 29 -1.9 15 15 SSW 10 17 29.84 1010 10 16.0934 0 0
12:55 pm 12:55 Sunny 80 26.9 28 -2.2 15 15 SW 10 17 29.82 1010 10 16.0934 0 0
1:15 pm 13:15 Sunny 81 27.2 25 -3.7 13 13 WSW 9 15 29.81 1010 10 16.0934 0 0
1:35 pm 13:35 Sunny 82 27.6 26 -3.5 13 13 SW 10 17 29.8 1009 10 16.0934 0 0
1:55 pm 13:55 Sunny 82 28 25 -3.9 12 12 WSW 10 17 29.79 1009 10 16.0934 0 0
2:15 pm 14:15 Sunny 83 28.1 26 -3.5 12 12 W 8 13 29.78 1009 10 16.0934 0 0
2:35 pm 14:35 Sunny 83 28.1 26 -3.6 12 12 WSW 8 13 29.77 1008 10 16.0934 0 0
2:55 pm 14:55 Sunny 82 28 26 -3.6 12 12 SW 7 11 29.78 1008 10 16.0934 0 0
3:15 pm 15:15 Sunny 83 28.1 25 -3.7 12 12 W 8 13 29.77 1008 10 16.0934 0 0
3:35 pm 15:35 Sunny 82 28 25 -4.1 12 12 WSW 7 11 29.77 1008 10 16.0934 0 0
3:55 pm 15:55 Sunny 82 28 24 -4.5 12 12 W 6 9 29.78 1008 10 16.0934 0 0
4:15 pm 16:15 Sunny 82 27.6 24 -4.4 12 12 W 7 11 29.78 1008 10 16.0934 0 0
4:35 pm 16:35 Sunny 80 26.6 25 -4 13 13 SW 6 9 29.79 1009 10 16.0934 0 0
4:55 pm 16:55 Sunny 77 25 24 -4.2 14 14 SSW 5 7 29.8 1009 10 16.0934 0 0
5:15 pm 17:15 Sunny 73 22.5 29 -1.6 20 20 SSW 7 11 29.82 1010 10 16.0934 0 0
5:35 pm 17:35 Clear 67 19.7 29 -1.5 24 24 S 6 9 29.84 1011 10 16.0934 0 0
5:55 pm 17:55 Clear 61 16.1 28 -2 29 29 NW 6 9 29.89 1012 7 11.26538 0 0
6:15 pm 18:15 Clear 64 17.8 29 -1.7 27 27 SW 6 9 29.88 1012 10 16.0934 0 0
6:35 pm 18:35 Clear 62 16.5 28 -2.2 28 28 SW 8 13 29.89 1012 10 16.0934 0 0
6:55 pm 18:55 Clear 60 15.7 28 -2.5 29 29 SW 7 11 29.9 1013 10 16.0934 0 0
7:15 pm 19:15 Clear 56 13.3 27 -2.7 33 33 SW 3 6 29.92 1013 10 16.0934 0 0
7:35 pm 19:35 Clear 55 12.6 27 -2.8 34 34 SW 5 7 29.94 1014 10 16.0934 0 0
7:55 pm 19:55 Clear 54 12.1 28 -2.5 36 36 SW 6 9 29.94 1014 10 16.0934 0 0
8:15 pm 20:15 Clear 53 11.9 27 -2.7 36 36 SW 6 9 29.94 1014 10 16.0934 0 0
8:35 pm 20:35 Clear 50 9.8 28 -2.3 43 43 SW 3 6 29.96 1015 10 16.0934 0 0
8:55 pm 20:55 Clear 47 8.2 27 -2.9 46 46 Calm 29.98 1015 10 16.0934 0 0
9:15 pm 21:15 Clear 46 7.9 27 -3 46 46 Calm 29.98 1015 10 16.0934 0 0
9:35 pm 21:35 Clear 46 7.5 26 -3.1 47 47 N 5 7 29.98 1015 10 16.0934 0 0
9:55 pm 21:55 Clear 45 7 27 -2.6 51 51 N 7 11 30 1016 10 16.0934 0 0
10:15 pm 22:15 Clear 44 6.7 27 -2.8 51 51 NNW 6 9 30 1016 10 16.0934 0 0
10:35 pm 22:35 Clear 43 6 27 -2.6 54 54 NNW 7 11 30.01 1016 10 16.0934 0 0
10:55 pm 22:55 Clear 43 6.2 26 -3.1 52 52 NW 5 7 30.01 1016 10 16.0934 0 0
11:15 pm 23:15 Clear 42 5.3 26 -3.3 54 54 WSW 5 7 30.02 1016 10 16.0934 0 0
11:35 pm 23:35 Clear 40 4.4 26 -3.3 58 58 WNW 7 11 30.03 1017 10 16.0934 0 0
11:55 pm 23:55 Clear 38 3.3 26 -3.5 61 61 WNW 7 11 30.04 1017 10 16.0934 0 0

Powered by AerisWeather